Regional Weather Roundup
Issued by NWS

Home | Current Version | Previous Version | Graphics & Text | Print | Product List | Glossary Off
Versions: 1 2 3 4 5 6 7 8 9 10 11 12 13 14 15 16 17 18 19 20 21 22 23 24 25 26 27 28 29 30 31 32 33 34 35 36 37 38 39 40 41 42 43 44 45 46 47 48 49 50

000
ASUS43 KMKX 020400
RWRWI

WISCONSIN REGIONAL WEATHER ROUNDUP
NATIONAL WEATHER SERVICE MILWAUKEE/SULLIVAN WI
1100 PM CDT MON SEP 01 2014

NOTE: "FAIR" INDICATES FEW OR NO CLOUDS BELOW 12,000 FEET WITH NO
SIGNIFICANT WEATHER AND/OR OBSTRUCTIONS TO VISIBILITY.

WIZ001-002-006>008-014>016-023>028-020500-
NORTHWEST WISCONSIN

CITY           SKY/WX    TMP DP  RH WIND       PRES   REMARKS
SUPERIOR ARPT  PTCLDY    55  52  92 SW5       29.75S
ASHLAND        PTCLDY    56  53  90 SW6       29.76S
HAYWARD        PTCLDY    55  54  96 CALM      29.79S
SIREN          PTCLDY    58  56  92 CALM      29.80S
RICE LAKE      PTCLDY    57  55  93 CALM      29.82S
LADYSMITH      CLEAR     58  55  90 CALM      29.82R
EAU CLAIRE     CLEAR     61  58  90 W5        29.80R
MENOMONIE      CLEAR     63  57  80 W3        29.81R
NEW RICHMOND   CLEAR     60  58  93 S5        29.81S
OSCEOLA        CLEAR     59  59 100 CALM      29.83S
$$

WIZ003>005-009-010-017-018-020500-
NORTH CENTRAL WISCONSIN

CITY           SKY/WX    TMP DP  RH WIND       PRES   REMARKS
WOODRUFF       CLEAR     59  56  89 W3        29.79S
RHINELANDER    CLEAR     55  53  93 W5        29.80S
EAGLE RIVER    CLEAR     55  55 100 CALM      29.79R
LAND O LAKES   CLEAR     56  55  96 W3        29.79R
PHILLIPS       PTCLDY    58  53  85 CALM      29.80R
TOMAHAWK       CLEAR     54  51  91 CALM      29.80F
MEDFORD        CLEAR     57  55  93 CALM      29.81S
MERRILL        CLEAR     58  55  90 W5        29.80S
$$

WIZ029-030-035-036-043>047-020500-
CENTRAL WISCONSIN

CITY           SKY/WX    TMP DP  RH WIND       PRES   REMARKS
WAUSAU         CLEAR     62  57  83 NW7       29.79S
MOSINEE        PTCLDY    61  57  88 W5        29.81S
MARSHFIELD     CLEAR     60  56  86 W6        29.80S
STEVENS POINT  PTCLDY    62  57  84 W3        29.81S
WAUPACA        PTCLDY    65  61  85 W3        29.80R
WAUTOMA        CLEAR     61  61 100 CALM      29.81R FOG
WISC RAPIDS    CLEAR     59  57  93 CALM      29.81S
CAMP DOUGLAS   CLEAR     59  59 100 W5        29.81S
$$

WIZ011>013-019>022-031-037>040-048>050-020500-
NORTHEAST WISCONSIN

CITY           SKY/WX    TMP DP  RH WIND       PRES   REMARKS
ANTIGO         CLEAR     59  55  85 W7        29.81R
STURGEON BAY   CLEAR     66  59  77 W6        29.77R
GREEN BAY      CLEAR     63  60  90 SW5       29.78R
MANITOWOC      NOT AVBL
APPLETON       CLEAR     63  61  94 CALM      29.80R
CLINTONVILLE   CLEAR     63  55  77 W6        29.79R
OSHKOSH        CLEAR     65  63  93 SW3       29.80R
$$

WIZ032>034-041-042-053>061-020500-
SOUTHWEST WISCONSIN

CITY           SKY/WX    TMP DP  RH WIND       PRES   REMARKS
LA CROSSE      PTCLDY    65  60  84 SE6       29.81S
SPARTA         PTCLDY    59  58  96 CALM      29.82S
VIROQUA        FAIR      62  59  88 W7        29.84R
BOSCOBEL       MOCLDY    65  62  90 CALM      29.84R
PRAIRIE DU CHI CLOUDY    64  61  90 E3        29.84R
PLATTEVILLE    FAIR      66  63  91 CALM      29.87R
$$

WIZ056-057-062-063-064-067-068-020500-
SOUTH CENTRAL WISCONSIN

CITY           SKY/WX    TMP DP  RH WIND       PRES   REMARKS
BARABOO/DELLS  CLEAR     62  59  90 S3        29.83R
LONE ROCK      NOT AVBL
WATERTOWN      CLEAR     62  62 100 CALM      29.83R
MADISON        PTCLDY    67  60  78 CALM      29.84R
MIDDLETON      FAIR      64  62  94 CALM      29.84R
MONROE         MOCLDY    68  63  83 W7        29.85R
JANESVILLE     MOCLDY    68  64  88 CALM      29.85R
$$

WIZ051-052-058>065-066-070>072-020500-
SOUTHEAST WISCONSIN

CITY           SKY/WX    TMP DP  RH WIND       PRES   REMARKS
MILWAUKEE      PTCLDY    69  64  84 W5        29.83R
WAUKESHA       CLEAR     63  59  88 W5        29.84R
MILWAUKEE/TIMM PTCLDY    64  59  82 W5        29.82S
RACINE         CLEAR     68  65  90 W3        29.84R
BURLINGTON     CLEAR     62  61  98 SW3       29.83S
KENOSHA        CLEAR     66  64  93 SW5       29.84R
FOND DU LAC    CLEAR     63  60  90 SW5       29.82R
SHEBOYGAN      CLEAR     62  60  93 SW6       29.81R
WEST BEND      CLEAR     63  59  88 W5        29.82R
JUNEAU         CLEAR     62  61  97 SW5       29.84R
$$

LSZ147-162-020500-
LAKE SUPERIOR

STATION/POSITION TIME  TEMP    WIND        PRES    WAVE
                       AIR SEA DIR/SP/G            HT/PER
                 (UTC) (F)     (DEG/KT/KT) (MB)    (FT/S)
W MID LAKE BUOY  0250   60 57  240/  8/ 10 1005.2R   1/ 4
DEVILS ISLAND    0300   64     270/ 13/ 15 1006.4R
PORT WING        0300   62     200/  7/  8 1007.5R
SAXON HARBOR     0300   61     200/  7/  8 1007.5R
$$

LMZ867-665-643>646-020500-
LAKE MICHIGAN

STATION/POSITION TIME  TEMP    WIND        PRES    WAVE
                       AIR SEA DIR/SP/G            HT/PER
                 (UTC) (F)     (DEG/KT/KT) (MB)    (FT/S)
N MID LAKE BUOY  0250   66 64  240/  4/  6 1006.7R   2/ 6
NORTHPORT PIER   0300   65     240/  3/  4 1006.8R
KEWAUNEE LAKESHO 0300   67     300/  2/  3 1007.2R
SHEBOYGAN LAKESH 0300   67 53  240/  8/  9 1008.8R
ATWATER BUOY     0300   66     280/  6/  8 1010.3R
MILWAUKEE LAKESH 0300   72     280/  7/  8   N/A
S MID LAKE BUOY  0250   71 70  250/  8/ 10 1009.3R   2/ 3
KENOSHA   LAKESH 0300   72     270/  8/ 10 1009.5R
$$

TC  - TEMPERATURE IN CELSIUS
VSB - VISIBILITY IN STATUTE MILES
WCI - WIND CHILL INDEX
HX  - HEAT INDEX



USA.gov is the U.S. government's official web portal to all federal, state and local government web resources and services.